CAPE
0 0 0 0 0 0 0 0 0 0 0 0 0 0 0 0 0 0 0 0 0 0
0 0 0 0 0 0 0 0 0 0 0 0 0 0 0 0 0 0 0 0 0 0
0 0 0 0 0 0 0 0 0 0 0 0 0 0 0 0 0 0 0 0 0 0
0 0 0 0 0 0 0 0 0 0 0 0 0 0 0 0 0 0 0 0 0 0
0 0 0 0 0 0 0 0 0 0 0 0 0 0 0 0 0 0 0 0 0 0
0 0 0 0 0 0 0 0 0 0 0 0 0 0 0 0 1 0 0 0 0 0
0 0 0 0 0 0 0 0 0 0 0 0 0 0 0 0 6 3 1 0 0 0
0 0 0 0 0 0 0 0 0 0 0 0 0 0 0 0 0 7 1 1 0 0
0 0 0 0 0 0 0 0 0 0 0 0 0 0 0 0 0 3 0 0 0 0
0 0 0 0 0 0 0 0 0 0 0 0 0 0 0 0 0 0 1 0 0 0
0 0 0 0 0 0 0 0 0 0 0 0 0 0 0 0 0 0 0 0 0 0
0 0 0 0 0 0 0 0 0 0 0 0 0 0 0 0 0 2 0 0 0 0
0 0 0 0 0 0 0 0 0 0 0 0 0 0 0 0 0 0 0 0 0 0
0 0 0 0 0 0 0 0 0 0 0 0 0 0 0 0 1 0 1 0 0 0
CIN
-0 -0 -0 -0 -0 -0 -0 -0 -0 -0 -0 -0 -0 -0 -0 -0 -0 -0 -0 -0 -0 -0
-0 -0 -0 -0 -0 -0 -0 -0 -0 -0 -0 -0 -0 -0 -0 -0 -0 -0 -0 -0 -0 -0
-0 -0 -0 -0 -0 -0 -0 -0 -0 -0 -0 -0 -0 -0 -0 -0 -0 -0 -0 -0 -0 -0
-0 -0 -0 -0 -0 -0 -0 -0 -0 -0 -0 -0 -0 -0 -0 -0 -0 -0 -0 -0 -0 -0
-0 -0 -0 -0 -0 -0 -0 -0 -0 -0 -0 -0 -0 -0 -0 -2 -2 -0 -0 -0 -0 -0
-0 -0 -0 -0 -0 -0 -0 -0 -0 -0 -0 -0 -0 -0 -0 -1 -1 -0 -0 -0 -0 -0
-0 -0 -0 -0 -0 -0 -0 -0 -0 -0 -0 -0 -0 -0 -0 -0 -0 -0 -1 -0 -0 -0
-0 -0 -0 -0 -0 -0 -0 -0 -0 -0 -0 -0 -0 -0 -0 -0 -0 -0 -1 -0 -0 -0
-0 -0 -0 -0 -0 -0 -0 -0 -0 -0 -0 -0 -0 -0 -0 -0 -0 -0 -0 -0 -0 -0
-1 -1 -1 -0 -0 -0 -0 -0 -0 -0 -0 -0 -0 -0 -0 -0 -0 -0 -1 -0 -0 -0
-1 -1 -1 -1 -0 -0 -2 -0 -0 -0 -0 -0 -0 -0 -0 -0 -0 -1 -0 -0 -0 -0
-0 -1 -1 -0 -0 -1 -0 -0 -0 -0 -0 -0 -0 -0 -0 -0 -0 -1 -0 -0 -0 -0
-1 -2 -0 -0 -0 -0 -0 -0 -0 -0 -0 -0 -0 -0 -0 -0 -0 -0 -0 -0 -0 -0
-2 -1 -0 -0 -0 -0 -0 -0 -0 -0 -0 -0 -0 -0 -0 -0 -1 -0 -2 -0 -0 -0
Wind_Speed
19 20 20 22 23 24 25 26 28 30 31 32 32 32 32 32 32 31 31 31 30 29
18 19 21 21 23 24 26 28 29 30 32 32 33 32 32 31 30 30 29 29 29 29
18 19 21 23 24 26 27 28 30 31 32 33 33 32 31 31 30 30 29 29 29 29
20 21 21 22 24 26 28 29 31 31 31 32 32 31 30 30 29 29 30 29 29 29
21 21 22 24 25 27 29 29 30 31 32 31 30 30 30 31 31 31 31 31 31 30
22 22 23 24 25 26 28 30 31 30 31 31 30 30 29 29 29 30 30 30 30 30
24 25 26 26 27 29 30 32 31 30 29 29 29 28 27 27 28 27 28 28 28 28
24 26 28 30 31 31 31 32 30 29 28 27 26 26 26 26 27 27 26 27 26 25
26 28 29 30 32 32 32 30 28 27 26 26 26 25 25 26 26 27 24 25 25 25
28 30 31 31 31 30 30 28 27 26 25 26 24 24 25 24 25 26 23 23 24 24
31 32 31 31 31 30 28 28 27 25 25 26 24 24 24 24 24 23 22 23 22 23
30 32 31 31 30 29 29 27 25 25 25 26 25 25 23 24 23 21 22 23 22 21
30 31 32 31 30 29 28 27 25 26 25 26 26 25 24 23 21 21 21 21 20 20
31 32 31 31 30 30 30 29 27 27 26 26 25 25 23 21 19 19 21 20 19 17
Wind_Direction
330 331 333 333 335 335 334 333 332 330 329 328 327 326 324 319 317 315 311 310 310 308
328 329 329 331 331 331 330 329 329 329 327 326 324 323 322 321 319 316 314 311 310 307
325 326 325 325 326 327 329 328 328 327 325 324 323 322 321 319 318 315 313 312 309 307
320 321 322 323 325 326 326 326 326 326 325 324 323 322 320 318 317 314 312 312 308 306
318 319 320 321 323 325 325 327 327 326 325 324 323 321 318 314 312 310 308 306 305 304
315 318 319 321 323 326 327 326 325 325 324 322 321 319 317 316 313 310 309 307 304 302
313 314 317 320 323 324 324 324 324 325 324 323 321 319 317 315 315 312 310 308 307 305
314 314 315 317 320 321 322 321 323 323 323 322 322 320 317 315 314 311 311 311 309 308
313 314 317 320 320 322 321 322 322 322 321 320 319 318 317 315 313 314 312 311 310 310
314 314 317 320 322 323 322 323 323 321 319 317 318 317 316 316 315 313 312 312 312 311
314 315 318 321 322 323 323 321 321 319 318 316 316 315 316 316 314 313 312 310 312 309
315 315 318 319 322 323 322 319 318 317 316 313 314 313 315 313 313 312 310 309 310 309
317 316 316 318 320 321 319 317 317 315 314 311 311 311 312 311 312 310 308 309 310 307
316 315 316 317 318 316 315 314 313 312 311 310 309 309 309 309 310 309 307 307 309 310